{"data":{"norad_id":55173,"epoch":"2026-09-20T04:47:54.313152Z","epoch_age_seconds":51698,"freshness":"FRESH","line1":"1 55173U 23004AK  26263.19993418  .00000035  00000+0  57558-4 0  9994","line2":"2 55173  87.9200 346.9985 0001892 106.2366 253.8974 13.17649833180098","mean_motion":13.17649833,"eccentricity":0.0001892,"inclination_deg":87.92,"raan_deg":346.9985,"arg_perigee_deg":106.2366,"mean_anomaly_deg":253.8974,"bstar":5.7558e-5,"rev_number":18009,"period_min":109.28548419586,"perigee_km":1192.2774751853,"apogee_km":1195.1426621161,"semimajor_km":7571.8470686507,"source":"CELESTRAK","updated_at":"2026-09-20T09:00:44.757175Z"}}